Time,TemperatureF,DewpointF,PressureIn,WindDirection,WindDirectionDegrees,WindSpeedMPH,WindSpeedGustMPH,Humidity,HourlyPrecipIn,Conditions,Clouds,dailyrainin,SoftwareType,DateUTC
2013-01-06 00:01:00,27.3,22.0,30.12,SSW,203,0.0,5.0,80,0.00,,---,0.00,VWS V14.01,2013-01-06 05:01:00,
2013-01-06 00:06:00,27.3,22.0,30.12,South,175,2.0,2.0,80,0.00,,---,0.00,VWS V14.01,2013-01-06 05:06:00,
2013-01-06 00:08:00,27.3,22.0,30.11,SW,227,1.0,3.0,80,0.00,,---,0.00,VWS V14.01,2013-01-06 05:08:00,
2013-01-06 00:10:00,27.3,22.2,30.11,SW,227,1.0,3.0,81,0.00,,---,0.00,VWS V14.01,2013-01-06 05:10:00,
2013-01-06 00:12:00,27.3,22.2,30.12,SW,227,0.0,3.0,81,0.00,,---,0.00,VWS V14.01,2013-01-06 05:12:00,
2013-01-06 00:18:00,27.3,22.2,30.11,SSW,194,2.0,3.0,81,0.00,,---,0.00,VWS V14.01,2013-01-06 05:18:00,
2013-01-06 00:25:00,27.4,22.6,30.11,SSE,158,0.0,3.0,82,0.00,,---,0.00,VWS V14.01,2013-01-06 05:25:00,
2013-01-06 00:31:00,27.3,22.5,30.11,SSE,157,1.0,3.0,82,0.00,,---,0.00,VWS V14.01,2013-01-06 05:31:00,
2013-01-06 00:37:00,27.4,22.6,30.11,SSW,198,2.0,3.0,82,0.00,,---,0.00,VWS V14.01,2013-01-06 05:37:00,
2013-01-06 00:43:00,27.5,22.5,30.11,South,181,2.0,3.0,81,0.00,,---,0.00,VWS V14.01,2013-01-06 05:43:00,
2013-01-06 00:49:00,27.7,22.6,30.10,WSW,249,2.0,5.0,81,0.00,,---,0.00,VWS V14.01,2013-01-06 05:49:00,
2013-01-06 00:55:00,27.8,22.7,30.11,SW,226,1.0,5.0,81,0.00,,---,0.00,VWS V14.01,2013-01-06 05:55:00,
2013-01-06 01:01:00,27.7,22.6,30.11,SW,236,3.0,5.0,81,0.00,,---,0.00,VWS V14.01,2013-01-06 06:01:00,
2013-01-06 01:07:00,27.9,22.5,30.10,West,259,1.0,4.0,80,0.00,,---,0.00,VWS V14.01,2013-01-06 06:07:00,
2013-01-06 01:13:00,28.0,22.6,30.10,SSW,202,2.0,4.0,80,0.00,,---,0.00,VWS V14.01,2013-01-06 06:13:00,
2013-01-06 01:19:00,28.0,22.6,30.09,SSW,192,2.0,4.0,80,0.00,,---,0.00,VWS V14.01,2013-01-06 06:19:00,
2013-01-06 01:25:00,28.1,22.7,30.10,West,272,2.0,5.0,80,0.00,,---,0.00,VWS V14.01,2013-01-06 06:25:00,
2013-01-06 01:31:00,28.1,22.7,30.09,WSW,240,0.0,5.0,80,0.00,,---,0.00,VWS V14.01,2013-01-06 06:31:00,
2013-01-06 01:37:00,28.1,22.7,30.09,SSW,206,2.0,3.0,80,0.00,,---,0.00,VWS V14.01,2013-01-06 06:37:00,
2013-01-06 01:43:00,28.1,22.7,30.09,SW,218,2.0,6.0,80,0.00,,---,0.00,VWS V14.01,2013-01-06 06:43:00,
2013-01-06 01:49:00,28.2,22.8,30.09,SSW,196,3.0,6.0,80,0.00,,---,0.00,VWS V14.01,2013-01-06 06:49:00,
2013-01-06 01:55:00,28.4,23.0,30.09,SW,229,2.0,6.0,80,0.00,,---,0.00,VWS V14.01,2013-01-06 06:55:00,
2013-01-06 02:01:00,28.4,23.0,30.09,SW,219,4.0,7.0,80,0.00,,---,0.00,VWS V14.01,2013-01-06 07:01:00,
2013-01-06 02:07:00,28.5,23.1,30.08,WSW,250,1.0,9.0,80,0.00,,---,0.00,VWS V14.01,2013-01-06 07:07:00,
2013-01-06 02:13:00,28.7,23.0,30.09,SW,236,3.0,9.0,79,0.00,,---,0.00,VWS V14.01,2013-01-06 07:13:00,
2013-01-06 02:19:00,28.6,23.2,30.08,WNW,285,1.0,9.0,80,0.00,,---,0.00,VWS V14.01,2013-01-06 07:19:00,
2013-01-06 02:25:00,28.7,23.3,30.08,West,260,0.0,9.0,80,0.00,,---,0.00,VWS V14.01,2013-01-06 07:25:00,
2013-01-06 02:31:00,28.7,23.3,30.08,SSW,202,1.0,9.0,80,0.00,,---,0.00,VWS V14.01,2013-01-06 07:31:00,
2013-01-06 02:37:00,28.8,23.4,30.08,SW,223,2.0,5.0,80,0.00,,---,0.00,VWS V14.01,2013-01-06 07:37:00,
2013-01-06 02:43:00,28.9,23.5,30.08,SSW,199,6.0,6.0,80,0.00,,---,0.00,VWS V14.01,2013-01-06 07:43:00,
2013-01-06 02:49:00,29.0,23.6,30.08,WSW,254,0.0,6.0,80,0.00,,---,0.00,VWS V14.01,2013-01-06 07:49:00,
2013-01-06 02:56:00,29.0,23.9,30.08,WSW,249,1.0,7.0,81,0.00,,---,0.00,VWS V14.01,2013-01-06 07:56:00,
2013-01-06 03:01:00,29.1,23.7,30.07,West,273,5.0,10.0,80,0.00,,---,0.00,VWS V14.01,2013-01-06 08:01:00,
2013-01-06 03:08:00,29.2,23.8,30.07,SW,234,2.0,9.0,80,0.00,,---,0.00,VWS V14.01,2013-01-06 08:08:00,
2013-01-06 03:14:00,29.2,23.8,30.07,SSW,213,1.0,9.0,80,0.00,,---,0.00,VWS V14.01,2013-01-06 08:14:00,
2013-01-06 03:20:00,29.2,23.8,30.07,SSW,199,3.0,9.0,80,0.00,,---,0.00,VWS V14.01,2013-01-06 08:20:00,
2013-01-06 03:26:00,29.4,24.0,30.07,SW,219,3.0,10.0,80,0.00,,---,0.00,VWS V14.01,2013-01-06 08:26:00,
2013-01-06 03:31:00,29.6,24.5,30.07,WSW,248,2.0,14.0,81,0.00,,---,0.00,VWS V14.01,2013-01-06 08:31:00,
2013-01-06 03:38:00,29.6,24.5,30.07,SW,232,0.0,7.0,81,0.00,,---,0.00,VWS V14.01,2013-01-06 08:38:00,
2013-01-06 03:44:00,29.5,24.4,30.07,SSW,213,3.0,9.0,81,0.00,,---,0.00,VWS V14.01,2013-01-06 08:44:00,
2013-01-06 03:50:00,29.4,24.6,30.06,SSW,196,3.0,9.0,82,0.00,,---,0.00,VWS V14.01,2013-01-06 08:50:00,
2013-01-06 03:56:00,29.4,24.6,30.07,West,274,2.0,9.0,82,0.00,,---,0.00,VWS V14.01,2013-01-06 08:56:00,
2013-01-06 04:01:00,29.3,24.5,30.07,West,278,0.0,9.0,82,0.00,,---,0.00,VWS V14.01,2013-01-06 09:01:00,
2013-01-06 04:08:00,29.4,24.6,30.06,West,272,2.0,7.0,82,0.00,,---,0.00,VWS V14.01,2013-01-06 09:08:00,
2013-01-06 04:14:00,29.4,24.6,30.06,West,273,0.0,7.0,82,0.00,,---,0.00,VWS V14.01,2013-01-06 09:14:00,
2013-01-06 04:20:00,29.4,24.6,30.06,SW,222,4.0,7.0,82,0.00,,---,0.00,VWS V14.01,2013-01-06 09:20:00,
2013-01-06 04:26:00,29.5,24.7,30.05,West,275,0.0,8.0,82,0.00,,---,0.00,VWS V14.01,2013-01-06 09:26:00,
2013-01-06 04:32:00,29.6,24.5,30.05,West,266,3.0,3.0,81,0.00,,---,0.00,VWS V14.01,2013-01-06 09:32:00,
2013-01-06 04:38:00,29.6,24.5,30.05,WSW,253,2.0,5.0,81,0.00,,---,0.00,VWS V14.01,2013-01-06 09:38:00,
2013-01-06 04:44:00,29.5,24.7,30.04,SW,214,2.0,5.0,82,0.00,,---,0.00,VWS V14.01,2013-01-06 09:44:00,
2013-01-06 04:50:00,29.5,24.7,30.04,WNW,287,1.0,5.0,82,0.00,,---,0.00,VWS V14.01,2013-01-06 09:50:00,
2013-01-06 04:56:00,29.5,24.7,30.04,SSW,206,5.0,5.0,82,0.00,,---,0.00,VWS V14.01,2013-01-06 09:56:00,
2013-01-06 05:02:00,29.5,24.7,30.03,West,271,2.0,4.0,82,0.00,,---,0.00,VWS V14.01,2013-01-06 10:02:00,
2013-01-06 05:08:00,29.7,24.6,30.04,SSW,209,2.0,7.0,81,0.00,,---,0.00,VWS V14.01,2013-01-06 10:08:00,
2013-01-06 05:15:00,29.7,24.6,30.03,SW,230,2.0,7.0,81,0.00,,---,0.00,VWS V14.01,2013-01-06 10:15:00,
2013-01-06 05:21:00,29.8,24.7,30.04,West,279,2.0,7.0,81,0.00,,---,0.00,VWS V14.01,2013-01-06 10:21:00,
2013-01-06 05:27:00,29.7,24.6,30.04,West,263,3.0,7.0,81,0.00,,---,0.00,VWS V14.01,2013-01-06 10:27:00,
2013-01-06 05:33:00,29.7,24.6,30.04,West,260,1.0,4.0,81,0.00,,---,0.00,VWS V14.01,2013-01-06 10:33:00,
2013-01-06 05:39:00,29.8,24.7,30.04,WSW,248,3.0,9.0,81,0.00,,---,0.00,VWS V14.01,2013-01-06 10:39:00,
2013-01-06 05:45:00,29.9,24.8,30.03,SW,236,1.0,9.0,81,0.00,,---,0.00,VWS V14.01,2013-01-06 10:45:00,
2013-01-06 05:51:00,30.0,24.9,30.04,West,270,3.0,9.0,81,0.00,,---,0.00,VWS V14.01,2013-01-06 10:51:00,
2013-01-06 05:57:00,29.9,24.8,30.03,WNW,291,5.0,10.0,81,0.00,,---,0.00,VWS V14.01,2013-01-06 10:57:00,
2013-01-06 06:03:00,29.9,24.8,30.03,West,266,2.0,4.0,81,0.00,,---,0.00,VWS V14.01,2013-01-06 11:03:00,
2013-01-06 06:09:00,29.9,25.1,30.03,West,263,3.0,5.0,82,0.00,,---,0.00,VWS V14.01,2013-01-06 11:09:00,
2013-01-06 06:15:00,29.9,24.8,30.03,SW,234,4.0,7.0,81,0.00,,---,0.00,VWS V14.01,2013-01-06 11:15:00,
2013-01-06 06:21:00,30.0,25.2,30.03,NW,306,11.0,11.0,82,0.00,,---,0.00,VWS V14.01,2013-01-06 11:21:00,
2013-01-06 06:27:00,29.9,25.1,30.03,SSW,209,5.0,11.0,82,0.00,,---,0.00,VWS V14.01,2013-01-06 11:27:00,
2013-01-06 06:33:00,29.9,25.1,30.04,West,272,3.0,9.0,82,0.00,,---,0.00,VWS V14.01,2013-01-06 11:33:00,
2013-01-06 06:39:00,29.9,25.1,30.04,West,265,5.0,9.0,82,0.00,,---,0.00,VWS V14.01,2013-01-06 11:39:00,
2013-01-06 06:45:00,29.9,25.1,30.04,SW,219,1.0,9.0,82,0.00,,---,0.00,VWS V14.01,2013-01-06 11:45:00,
2013-01-06 06:51:00,30.0,25.2,30.04,West,264,2.0,9.0,82,0.00,,---,0.00,VWS V14.01,2013-01-06 11:51:00,
2013-01-06 06:57:00,30.1,25.3,30.03,SW,235,3.0,10.0,82,0.00,,---,0.00,VWS V14.01,2013-01-06 11:57:00,
2013-01-06 07:03:00,30.0,25.2,30.03,WSW,242,2.0,8.0,82,0.00,,---,0.00,VWS V14.01,2013-01-06 12:03:00,
2013-01-06 07:09:00,29.9,25.4,30.03,South,191,1.0,8.0,83,0.00,,---,0.00,VWS V14.01,2013-01-06 12:09:00,
2013-01-06 07:15:00,29.9,25.4,30.03,SW,215,3.0,8.0,83,0.00,,---,0.00,VWS V14.01,2013-01-06 12:15:00,
2013-01-06 07:21:00,29.9,25.4,30.03,SW,214,0.0,10.0,83,0.00,,---,0.00,VWS V14.01,2013-01-06 12:21:00,
2013-01-06 07:27:00,29.9,25.4,30.03,South,188,0.0,10.0,83,0.00,,---,0.00,VWS V14.01,2013-01-06 12:27:00,
2013-01-06 07:33:00,29.9,25.7,30.02,WSW,241,2.0,3.0,84,0.00,,---,0.00,VWS V14.01,2013-01-06 12:33:00,
2013-01-06 07:39:00,29.7,25.5,30.02,WSW,247,1.0,6.0,84,0.00,,---,0.00,VWS V14.01,2013-01-06 12:39:00,
2013-01-06 07:46:00,29.6,25.6,30.02,West,262,2.0,6.0,85,0.00,,---,0.00,VWS V14.01,2013-01-06 12:46:00,
2013-01-06 07:52:00,29.5,25.6,30.02,SW,217,1.0,6.0,85,0.00,,---,0.00,VWS V14.01,2013-01-06 12:52:00,
2013-01-06 07:58:00,29.5,25.6,30.01,West,277,1.0,9.0,85,0.00,,---,0.00,VWS V14.01,2013-01-06 12:58:00,
2013-01-06 08:04:00,29.4,25.7,30.02,WSW,251,3.0,4.0,86,0.00,,---,0.00,VWS V14.01,2013-01-06 13:04:00,
2013-01-06 08:10:00,29.3,25.6,30.01,WSW,241,2.0,9.0,86,0.00,,---,0.00,VWS V14.01,2013-01-06 13:10:00,
2013-01-06 08:16:00,29.4,25.7,30.01,WNW,300,1.0,9.0,86,0.00,,---,0.00,VWS V14.01,2013-01-06 13:16:00,
2013-01-06 08:22:00,29.4,26.0,30.01,SW,232,1.0,9.0,87,0.00,,---,0.00,VWS V14.01,2013-01-06 13:22:00,
2013-01-06 08:28:00,29.4,25.7,30.01,WSW,244,1.0,9.0,86,0.00,,---,0.00,VWS V14.01,2013-01-06 13:28:00,
2013-01-06 08:34:00,29.5,25.8,30.02,WSW,237,2.0,6.0,86,0.00,,---,0.00,VWS V14.01,2013-01-06 13:34:00,
2013-01-06 08:40:00,29.6,26.2,30.02,SW,231,2.0,6.0,87,0.00,,---,0.00,VWS V14.01,2013-01-06 13:40:00,
2013-01-06 08:46:00,29.6,25.9,30.02,WSW,253,2.0,6.0,86,0.00,,---,0.00,VWS V14.01,2013-01-06 13:46:00,
2013-01-06 08:52:00,29.7,26.0,30.02,West,281,2.0,6.0,86,0.00,,---,0.00,VWS V14.01,2013-01-06 13:52:00,
2013-01-06 08:58:00,29.8,26.1,30.02,SSW,211,0.0,6.0,86,0.00,,---,0.00,VWS V14.01,2013-01-06 13:58:00,
2013-01-06 09:04:00,29.9,26.0,30.02,WSW,240,0.0,6.0,85,0.00,,---,0.00,VWS V14.01,2013-01-06 14:04:00,
2013-01-06 09:10:00,30.0,26.3,30.02,ESE,106,2.0,6.0,86,0.00,,---,0.00,VWS V14.01,2013-01-06 14:10:00,
2013-01-06 09:16:00,30.1,26.1,30.02,WSW,244,2.0,6.0,85,0.00,,---,0.00,VWS V14.01,2013-01-06 14:16:00,
2013-01-06 09:22:00,30.1,26.1,30.02,WNW,296,1.0,7.0,85,0.00,,---,0.00,VWS V14.01,2013-01-06 14:22:00,
2013-01-06 09:28:00,30.2,26.5,30.02,SW,228,2.0,7.0,86,0.00,,---,0.00,VWS V14.01,2013-01-06 14:28:00,
2013-01-06 09:34:00,30.2,26.5,30.02,SSE,168,1.0,7.0,86,0.00,,---,0.00,VWS V14.01,2013-01-06 14:34:00,
2013-01-06 09:40:00,30.1,26.7,30.02,SW,235,4.0,7.0,87,0.00,,---,0.00,VWS V14.01,2013-01-06 14:40:00,
2013-01-06 09:46:00,30.1,26.7,30.02,West,265,4.0,7.0,87,0.00,,---,0.00,VWS V14.01,2013-01-06 14:46:00,
2013-01-06 09:52:00,30.1,27.0,30.03,SW,229,3.0,7.0,88,0.00,,---,0.00,VWS V14.01,2013-01-06 14:52:00,
2013-01-06 09:58:00,30.1,27.0,30.02,SSW,209,4.0,7.0,88,0.00,,---,0.00,VWS V14.01,2013-01-06 14:58:00,
2013-01-06 10:04:00,30.3,27.2,30.02,SSE,163,1.0,5.0,88,0.00,,---,0.00,VWS V14.01,2013-01-06 15:04:00,
2013-01-06 10:10:00,30.3,26.9,30.02,WNW,290,4.0,8.0,87,0.00,,---,0.00,VWS V14.01,2013-01-06 15:10:00,
2013-01-06 10:16:00,30.5,27.1,30.02,SSE,151,6.0,10.0,87,0.00,,---,0.00,VWS V14.01,2013-01-06 15:16:00,
2013-01-06 10:22:00,30.7,27.3,30.02,WSW,240,2.0,10.0,87,0.00,,---,0.00,VWS V14.01,2013-01-06 15:22:00,
2013-01-06 10:29:00,30.8,27.4,30.02,West,259,5.0,10.0,87,0.00,,---,0.00,VWS V14.01,2013-01-06 15:29:00,
2013-01-06 10:35:00,31.0,27.3,30.02,SW,232,2.0,11.0,86,0.00,,---,0.00,VWS V14.01,2013-01-06 15:35:00,
2013-01-06 10:41:00,31.1,27.4,30.02,SW,226,2.0,11.0,86,0.00,,---,0.00,VWS V14.01,2013-01-06 15:41:00,
2013-01-06 10:47:00,31.2,27.5,30.02,WSW,240,2.0,11.0,86,0.00,,---,0.00,VWS V14.01,2013-01-06 15:47:00,
2013-01-06 10:53:00,31.2,27.5,30.02,WSW,243,2.0,11.0,86,0.00,,---,0.00,VWS V14.01,2013-01-06 15:53:00,
2013-01-06 10:59:00,31.1,27.4,30.02,West,275,3.0,11.0,86,0.00,,---,0.00,VWS V14.01,2013-01-06 15:59:00,
2013-01-06 11:05:00,31.1,27.4,30.02,WSW,242,2.0,6.0,86,0.00,,---,0.00,VWS V14.01,2013-01-06 16:05:00,
2013-01-06 11:11:00,31.1,27.4,30.01,West,259,4.0,15.0,86,0.00,,---,0.00,VWS V14.01,2013-01-06 16:11:00,
2013-01-06 11:17:00,31.1,27.4,30.01,West,262,6.0,15.0,86,0.00,,---,0.00,VWS V14.01,2013-01-06 16:17:00,
2013-01-06 11:23:00,31.1,27.4,30.01,West,261,6.0,15.0,86,0.00,,---,0.00,VWS V14.01,2013-01-06 16:23:00,
2013-01-06 11:29:00,31.0,27.3,30.00,WSW,254,6.0,15.0,86,0.00,,---,0.00,VWS V14.01,2013-01-06 16:29:00,
2013-01-06 11:35:00,31.1,27.4,30.01,West,273,6.0,6.0,86,0.00,,---,0.00,VWS V14.01,2013-01-06 16:35:00,
2013-01-06 11:41:00,31.1,27.7,30.00,SW,231,2.0,10.0,87,0.00,,---,0.00,VWS V14.01,2013-01-06 16:41:00,
2013-01-06 11:47:00,31.1,27.7,29.99,SW,229,2.0,10.0,87,0.00,,---,0.00,VWS V14.01,2013-01-06 16:47:00,
2013-01-06 11:53:00,31.1,27.7,29.99,WSW,257,2.0,10.0,87,0.00,,---,0.00,VWS V14.01,2013-01-06 16:53:00,
2013-01-06 11:59:00,31.1,27.7,29.98,SW,219,1.0,10.0,87,0.00,,---,0.00,VWS V14.01,2013-01-06 16:59:00,
2013-01-06 12:05:00,31.3,28.2,29.99,SE,138,5.0,5.0,88,0.00,,---,0.00,VWS V14.01,2013-01-06 17:05:00,
2013-01-06 12:11:00,31.4,28.0,29.98,WNW,286,1.0,6.0,87,0.00,,---,0.00,VWS V14.01,2013-01-06 17:11:00,
2013-01-06 12:17:00,31.6,28.2,29.98,West,275,2.0,6.0,87,0.00,,---,0.00,VWS V14.01,2013-01-06 17:17:00,
2013-01-06 12:23:00,31.7,28.0,29.97,West,273,3.0,6.0,86,0.00,,---,0.00,VWS V14.01,2013-01-06 17:23:00,
2013-01-06 12:29:00,31.7,28.0,29.97,NNW,327,1.0,7.0,86,0.00,,---,0.00,VWS V14.01,2013-01-06 17:29:00,
2013-01-06 12:35:00,31.7,28.0,29.97,SSW,205,9.0,12.0,86,0.00,,---,0.00,VWS V14.01,2013-01-06 17:35:00,
2013-01-06 12:41:00,31.8,28.1,29.97,WSW,240,4.0,16.0,86,0.00,,---,0.00,VWS V14.01,2013-01-06 17:41:00,
2013-01-06 12:47:00,32.0,28.3,29.96,WSW,242,3.0,16.0,86,0.00,,---,0.00,VWS V14.01,2013-01-06 17:47:00,
2013-01-06 12:53:00,32.1,28.1,29.96,West,274,5.0,16.0,85,0.00,,---,0.00,VWS V14.01,2013-01-06 17:53:00,
2013-01-06 13:00:00,32.2,28.2,29.95,SSW,210,6.0,16.0,85,0.00,,---,0.00,VWS V14.01,2013-01-06 18:00:00,
2013-01-06 13:06:00,32.1,28.1,29.95,West,262,2.0,9.0,85,0.00,,---,0.00,VWS V14.01,2013-01-06 18:06:00,
2013-01-06 13:12:00,32.3,28.6,29.94,WSW,248,4.0,9.0,86,0.00,,---,0.00,VWS V14.01,2013-01-06 18:12:00,
2013-01-06 13:18:00,32.3,28.3,29.94,SW,225,2.0,9.0,85,0.00,,---,0.00,VWS V14.01,2013-01-06 18:18:00,
2013-01-06 13:24:00,32.4,28.1,29.94,SW,221,7.0,11.0,84,0.00,,---,0.00,VWS V14.01,2013-01-06 18:24:00,
2013-01-06 13:30:00,32.5,28.2,29.94,SW,236,1.0,11.0,84,0.00,,---,0.00,VWS V14.01,2013-01-06 18:30:00,
2013-01-06 13:36:00,32.5,28.2,29.94,West,262,3.0,8.0,84,0.00,,---,0.00,VWS V14.01,2013-01-06 18:36:00,
2013-01-06 13:42:00,32.5,28.2,29.94,West,262,1.0,8.0,84,0.00,,---,0.00,VWS V14.01,2013-01-06 18:42:00,
2013-01-06 13:48:00,32.5,28.2,29.94,West,264,2.0,8.0,84,0.00,,---,0.00,VWS V14.01,2013-01-06 18:48:00,
2013-01-06 13:54:00,32.5,28.2,29.94,West,271,6.0,9.0,84,0.00,,---,0.00,VWS V14.01,2013-01-06 18:54:00,
2013-01-06 14:00:00,32.4,28.1,29.94,SSW,199,2.0,9.0,84,0.00,,---,0.00,VWS V14.01,2013-01-06 19:00:00,
2013-01-06 14:06:00,32.4,28.1,29.95,South,182,2.0,4.0,84,0.00,,---,0.00,VWS V14.01,2013-01-06 19:06:00,
2013-01-06 14:12:00,32.4,28.1,29.94,WNW,288,2.0,6.0,84,0.00,,---,0.00,VWS V14.01,2013-01-06 19:12:00,
2013-01-06 14:18:00,32.3,28.0,29.95,South,175,6.0,6.0,84,0.00,,---,0.00,VWS V14.01,2013-01-06 19:18:00,
2013-01-06 14:24:00,32.3,28.0,29.95,South,186,2.0,6.0,84,0.00,,---,0.00,VWS V14.01,2013-01-06 19:24:00,
2013-01-06 14:30:00,32.4,28.1,29.95,SW,236,3.0,6.0,84,0.00,,---,0.00,VWS V14.01,2013-01-06 19:30:00,
2013-01-06 14:36:00,32.4,28.1,29.95,West,265,3.0,6.0,84,0.00,,---,0.00,VWS V14.01,2013-01-06 19:36:00,
2013-01-06 14:42:00,32.4,28.4,29.96,WSW,257,3.0,7.0,85,0.00,,---,0.00,VWS V14.01,2013-01-06 19:42:00,
2013-01-06 14:48:00,32.4,28.1,29.95,WSW,243,1.0,10.0,84,0.00,,---,0.00,VWS V14.01,2013-01-06 19:48:00,
2013-01-06 14:55:00,32.4,28.1,29.96,West,276,4.0,10.0,84,0.01,,---,0.01,VWS V14.01,2013-01-06 19:55:00,
2013-01-06 15:01:00,32.5,28.2,29.96,WSW,243,2.0,10.0,84,0.01,,---,0.01,VWS V14.01,2013-01-06 20:01:00,
2013-01-06 15:07:00,32.6,28.0,29.96,West,263,4.0,14.0,83,0.01,,---,0.01,VWS V14.01,2013-01-06 20:07:00,
2013-01-06 15:11:00,32.6,28.0,29.96,West,275,5.0,14.0,83,0.01,,---,0.01,VWS V14.01,2013-01-06 20:11:00,
2013-01-06 15:17:00,32.6,28.0,29.97,South,188,5.0,14.0,83,0.01,,---,0.01,VWS V14.01,2013-01-06 20:17:00,
2013-01-06 15:23:00,32.5,27.9,29.97,West,277,6.0,14.0,83,0.01,,---,0.01,VWS V14.01,2013-01-06 20:23:00,
2013-01-06 15:29:00,32.5,27.9,29.97,WSW,249,1.0,14.0,83,0.01,,---,0.01,VWS V14.01,2013-01-06 20:29:00,
2013-01-06 15:36:00,32.4,28.1,29.97,WSW,252,2.0,7.0,84,0.01,,---,0.01,VWS V14.01,2013-01-06 20:36:00,
2013-01-06 15:42:00,32.4,28.1,29.97,WSW,240,4.0,8.0,84,0.01,,---,0.01,VWS V14.01,2013-01-06 20:42:00,
2013-01-06 15:48:00,32.3,28.3,29.97,WSW,244,4.0,10.0,85,0.02,,---,0.02,VWS V14.01,2013-01-06 20:48:00,
2013-01-06 15:54:00,32.2,28.2,29.98,WSW,250,2.0,10.0,85,0.02,,---,0.02,VWS V14.01,2013-01-06 20:54:00,
2013-01-06 16:00:00,32.1,28.4,29.98,WSW,241,2.0,11.0,86,0.02,,---,0.02,VWS V14.01,2013-01-06 21:00:00,
2013-01-06 16:01:00,32.1,28.4,29.98,WNW,299,2.0,11.0,86,0.02,,---,0.02,VWS V14.01,2013-01-06 21:01:00,
2013-01-06 16:08:00,32.0,28.3,29.98,West,271,4.0,11.0,86,0.01,,---,0.02,VWS V14.01,2013-01-06 21:08:00,
2013-01-06 16:14:00,31.9,28.2,29.98,West,262,5.0,11.0,86,0.01,,---,0.02,VWS V14.01,2013-01-06 21:14:00,
2013-01-06 16:20:00,31.9,28.2,29.98,WSW,247,3.0,11.0,86,0.01,,---,0.02,VWS V14.01,2013-01-06 21:20:00,
2013-01-06 16:26:00,31.9,28.2,29.98,SW,229,7.0,11.0,86,0.01,,---,0.02,VWS V14.01,2013-01-06 21:26:00,
2013-01-06 16:31:00,31.9,28.5,29.98,West,263,4.0,11.0,87,0.01,,---,0.02,VWS V14.01,2013-01-06 21:31:00,
2013-01-06 16:38:00,31.8,28.4,29.98,West,264,3.0,8.0,87,0.01,,---,0.02,VWS V14.01,2013-01-06 21:38:00,
2013-01-06 16:44:00,31.7,28.3,29.99,West,272,3.0,12.0,87,0.01,,---,0.02,VWS V14.01,2013-01-06 21:44:00,
2013-01-06 16:50:00,31.6,28.5,29.99,WSW,240,0.0,12.0,88,0.01,,---,0.02,VWS V14.01,2013-01-06 21:50:00,
2013-01-06 16:56:00,31.5,28.4,29.99,West,270,3.0,12.0,88,0.01,,---,0.02,VWS V14.01,2013-01-06 21:56:00,
2013-01-06 17:02:00,31.3,28.4,30.00,WSW,254,2.0,3.0,89,0.00,,---,0.02,VWS V14.01,2013-01-06 22:02:00,
2013-01-06 17:08:00,31.2,28.6,30.00,SW,228,1.0,7.0,90,0.00,,---,0.02,VWS V14.01,2013-01-06 22:08:00,
2013-01-06 17:14:00,31.1,28.5,30.00,WSW,250,4.0,7.0,90,0.00,,---,0.02,VWS V14.01,2013-01-06 22:14:00,
2013-01-06 17:20:00,31.0,28.7,30.01,SSW,202,4.0,12.0,91,0.00,,---,0.02,VWS V14.01,2013-01-06 22:20:00,
2013-01-06 17:26:00,31.0,28.7,30.01,WSW,256,2.0,12.0,91,0.00,,---,0.02,VWS V14.01,2013-01-06 22:26:00,
2013-01-06 17:33:00,30.9,28.6,30.01,West,273,6.0,6.0,91,0.00,,---,0.02,VWS V14.01,2013-01-06 22:33:00,
2013-01-06 17:39:00,30.9,28.6,30.01,WNW,286,3.0,11.0,91,0.00,,---,0.02,VWS V14.01,2013-01-06 22:39:00,
2013-01-06 17:45:00,30.9,28.9,30.01,West,276,5.0,11.0,92,0.00,,---,0.02,VWS V14.01,2013-01-06 22:45:00,
2013-01-06 17:51:00,30.9,28.9,30.02,WSW,254,5.0,11.0,92,0.00,,---,0.02,VWS V14.01,2013-01-06 22:51:00,
2013-01-06 17:57:00,30.9,28.9,30.02,West,265,4.0,11.0,92,0.00,,---,0.02,VWS V14.01,2013-01-06 22:57:00,
2013-01-06 18:03:00,30.9,28.9,30.02,West,267,3.0,10.0,92,0.00,,---,0.02,VWS V14.01,2013-01-06 23:03:00,
2013-01-06 18:09:00,30.9,28.9,30.02,West,271,2.0,10.0,92,0.00,,---,0.02,VWS V14.01,2013-01-06 23:09:00,
2013-01-06 18:15:00,30.9,28.9,30.02,WNW,286,3.0,10.0,92,0.00,,---,0.02,VWS V14.01,2013-01-06 23:15:00,
2013-01-06 18:21:00,30.9,28.9,30.03,WNW,288,5.0,10.0,92,0.00,,---,0.02,VWS V14.01,2013-01-06 23:21:00,
2013-01-06 18:27:00,30.9,28.9,30.03,WNW,288,3.0,10.0,92,0.00,,---,0.02,VWS V14.01,2013-01-06 23:27:00,
2013-01-06 18:33:00,30.9,29.1,30.03,WNW,290,4.0,6.0,93,0.00,,---,0.02,VWS V14.01,2013-01-06 23:33:00,
2013-01-06 18:39:00,30.9,29.1,30.03,West,273,3.0,9.0,93,0.00,,---,0.02,VWS V14.01,2013-01-06 23:39:00,
2013-01-06 18:45:00,30.9,29.1,30.04,West,273,3.0,9.0,93,0.00,,---,0.02,VWS V14.01,2013-01-06 23:45:00,
2013-01-06 18:51:00,30.9,29.1,30.04,West,265,3.0,11.0,93,0.00,,---,0.02,VWS V14.01,2013-01-06 23:51:00,
2013-01-06 18:57:00,30.9,29.1,30.04,West,268,3.0,11.0,93,0.00,,---,0.02,VWS V14.01,2013-01-06 23:57:00,
2013-01-06 19:03:00,30.9,29.1,30.04,West,259,4.0,5.0,93,0.00,,---,0.02,VWS V14.01,2013-01-07 00:03:00,
2013-01-06 19:09:00,30.9,29.1,30.05,WSW,254,2.0,10.0,93,0.00,,---,0.02,VWS V14.01,2013-01-07 00:09:00,
2013-01-06 19:15:00,30.9,29.1,30.05,WSW,255,7.0,10.0,93,0.00,,---,0.02,VWS V14.01,2013-01-07 00:15:00,
2013-01-06 19:21:00,30.9,29.1,30.05,WSW,248,6.0,11.0,93,0.00,,---,0.02,VWS V14.01,2013-01-07 00:21:00,
2013-01-06 19:27:00,30.9,29.1,30.05,WNW,284,4.0,11.0,93,0.00,,---,0.02,VWS V14.01,2013-01-07 00:27:00,
2013-01-06 19:34:00,30.9,29.1,30.05,NW,315,2.0,10.0,93,0.00,,---,0.02,VWS V14.01,2013-01-07 00:34:00,
2013-01-06 19:40:00,30.9,29.1,30.05,West,268,5.0,10.0,93,0.00,,---,0.02,VWS V14.01,2013-01-07 00:40:00,
2013-01-06 19:46:00,30.9,29.1,30.05,WSW,254,3.0,10.0,93,0.00,,---,0.02,VWS V14.01,2013-01-07 00:46:00,
2013-01-06 19:52:00,30.9,29.1,30.06,West,263,3.0,10.0,93,0.00,,---,0.02,VWS V14.01,2013-01-07 00:52:00,
2013-01-06 19:58:00,30.8,29.0,30.05,West,263,3.0,10.0,93,0.00,,---,0.02,VWS V14.01,2013-01-07 00:58:00,
2013-01-06 20:04:00,30.8,29.0,30.05,WNW,283,4.0,6.0,93,0.00,,---,0.02,VWS V14.01,2013-01-07 01:04:00,
2013-01-06 20:10:00,30.8,29.0,30.06,West,267,5.0,8.0,93,0.00,,---,0.02,VWS V14.01,2013-01-07 01:10:00,
2013-01-06 20:16:00,30.8,29.0,30.06,WSW,257,4.0,9.0,93,0.00,,---,0.02,VWS V14.01,2013-01-07 01:16:00,
2013-01-06 20:22:00,30.8,29.0,30.06,WSW,253,2.0,9.0,93,0.00,,---,0.02,VWS V14.01,2013-01-07 01:22:00,
2013-01-06 20:28:00,30.8,29.0,30.06,West,276,4.0,9.0,93,0.00,,---,0.02,VWS V14.01,2013-01-07 01:28:00,
2013-01-06 20:34:00,30.8,29.0,30.07,West,274,8.0,12.0,93,0.00,,---,0.02,VWS V14.01,2013-01-07 01:34:00,
2013-01-06 20:40:00,30.8,29.0,30.07,West,280,7.0,13.0,93,0.00,,---,0.02,VWS V14.01,2013-01-07 01:40:00,
2013-01-06 20:46:00,30.8,29.0,30.07,WNW,291,3.0,13.0,93,0.00,,---,0.02,VWS V14.01,2013-01-07 01:46:00,
2013-01-06 20:52:00,30.8,29.0,30.07,WSW,251,9.0,13.0,93,0.00,,---,0.02,VWS V14.01,2013-01-07 01:52:00,
2013-01-06 20:58:00,30.8,29.0,30.07,NW,312,3.0,14.0,93,0.00,,---,0.02,VWS V14.01,2013-01-07 01:58:00,
2013-01-06 21:04:00,30.8,28.8,30.08,NW,311,6.0,12.0,92,0.00,,---,0.02,VWS V14.01,2013-01-07 02:04:00,
2013-01-06 21:10:00,30.8,28.8,30.08,WNW,283,3.0,13.0,92,0.00,,---,0.02,VWS V14.01,2013-01-07 02:10:00,
2013-01-06 21:16:00,30.8,28.8,30.08,West,263,5.0,13.0,92,0.00,,---,0.02,VWS V14.01,2013-01-07 02:16:00,
2013-01-06 21:22:00,30.8,28.5,30.08,WNW,286,1.0,13.0,91,0.00,,---,0.02,VWS V14.01,2013-01-07 02:22:00,
2013-01-06 21:28:00,30.7,28.4,30.08,NW,314,4.0,13.0,91,0.00,,---,0.02,VWS V14.01,2013-01-07 02:28:00,
2013-01-06 21:34:00,30.8,28.5,30.08,West,264,9.0,13.0,91,0.00,,---,0.02,VWS V14.01,2013-01-07 02:34:00,
2013-01-06 21:40:00,30.7,28.7,30.08,West,275,3.0,13.0,92,0.00,,---,0.02,VWS V14.01,2013-01-07 02:40:00,
2013-01-06 21:47:00,30.6,28.6,30.09,West,277,12.0,14.0,92,0.00,,---,0.02,VWS V14.01,2013-01-07 02:47:00,
2013-01-06 21:53:00,30.6,28.6,30.09,WNW,285,6.0,14.0,92,0.00,,---,0.02,VWS V14.01,2013-01-07 02:53:00,
2013-01-06 21:59:00,30.5,28.5,30.09,West,271,3.0,14.0,92,0.00,,---,0.02,VWS V14.01,2013-01-07 02:59:00,
2013-01-06 22:05:00,30.5,28.5,30.09,WNW,287,10.0,10.0,92,0.00,,---,0.02,VWS V14.01,2013-01-07 03:05:00,
2013-01-06 22:11:00,30.5,28.5,30.09,West,281,8.0,12.0,92,0.00,,---,0.02,VWS V14.01,2013-01-07 03:11:00,
2013-01-06 22:17:00,30.4,28.4,30.10,WNW,287,5.0,15.0,92,0.00,,---,0.02,VWS V14.01,2013-01-07 03:17:00,
2013-01-06 22:23:00,30.4,28.4,30.11,West,267,6.0,15.0,92,0.00,,---,0.02,VWS V14.01,2013-01-07 03:23:00,
2013-01-06 22:29:00,30.4,28.4,30.11,West,275,7.0,15.0,92,0.00,,---,0.02,VWS V14.01,2013-01-07 03:29:00,
2013-01-06 22:35:00,30.3,28.3,30.11,WNW,285,6.0,13.0,92,0.00,,---,0.02,VWS V14.01,2013-01-07 03:35:00,
2013-01-06 22:41:00,30.3,28.3,30.11,West,273,7.0,13.0,92,0.00,,---,0.02,VWS V14.01,2013-01-07 03:41:00,
2013-01-06 22:47:00,30.3,28.3,30.11,West,275,3.0,13.0,92,0.00,,---,0.02,VWS V14.01,2013-01-07 03:47:00,
2013-01-06 22:53:00,30.3,28.3,30.11,West,271,10.0,13.0,92,0.00,,---,0.02,VWS V14.01,2013-01-07 03:53:00,
2013-01-06 22:59:00,30.3,28.3,30.12,West,267,5.0,13.0,92,0.00,,---,0.02,VWS V14.01,2013-01-07 03:59:00,
2013-01-06 23:05:00,30.3,28.3,30.12,WNW,283,3.0,10.0,92,0.00,,---,0.02,VWS V14.01,2013-01-07 04:05:00,
2013-01-06 23:11:00,30.3,28.5,30.13,West,259,5.0,11.0,93,0.00,,---,0.02,VWS V14.01,2013-01-07 04:11:00,
2013-01-06 23:17:00,30.4,28.6,30.13,SW,236,8.0,14.0,93,0.00,,---,0.02,VWS V14.01,2013-01-07 04:17:00,
2013-01-06 23:23:00,30.4,28.4,30.12,West,281,6.0,14.0,92,0.00,,---,0.02,VWS V14.01,2013-01-07 04:23:00,
2013-01-06 23:29:00,30.4,28.4,30.13,WNW,286,6.0,14.0,92,0.00,,---,0.02,VWS V14.01,2013-01-07 04:29:00,
2013-01-06 23:35:00,30.4,28.4,30.14,West,275,5.0,9.0,92,0.00,,---,0.02,VWS V14.01,2013-01-07 04:35:00,
2013-01-06 23:42:00,30.4,28.4,30.14,WNW,293,6.0,12.0,92,0.00,,---,0.02,VWS V14.01,2013-01-07 04:42:00,
2013-01-06 23:48:00,30.4,28.4,30.14,WNW,288,2.0,12.0,92,0.00,,---,0.02,VWS V14.01,2013-01-07 04:48:00,
2013-01-06 23:54:00,30.4,28.4,30.15,West,265,3.0,12.0,92,0.00,,---,0.02,VWS V14.01,2013-01-07 04:54:00,